Powrót do katalogu

SL-12 R/B

AUX MOTOR

AktywnyHEO
NORAD 20082·ROCKET BODY·🇷🇺 Russia

Wystrzelony May 31, 1989 z Baikonur Cosmodrome

Loading…

Następne Przeloty (najbliższe 24 godziny)

TLE

ŚwieżeSource: Space-Track

Epoka: Sep 14, 2026, 05:14 UTC

1 20082U 89039H   26257.21830570 -.00000076  00000-0 -11902-3 0  9990
2 20082  65.1177 333.4349 5553398  88.1440 331.2699  4.42434409587695

Śledź SL-12 R/B w czasie rzeczywistym z AllMySat

Download on the App Store